Date String (YYYY-MM-DD hh:mm:ss) UTC,Instrument flags,absolute air pressure of the measurement (hPa),sample flow rate (lpm),inlet stack bypass flow (lpm),air temperature of the measurement (°C),ambient temperature measured by the external sensor (°C),aerosol sample conditioner tube jacket temperature (°C),OPC LED temperature (°C),internal box temperature (°C),relative humidity of the measurement (%),span deviation,mass concentration of particles derived from Lorenz-Mie calculation of OPC scattering (μg/m³),mass concentration of particles derived from Lorenz-Mie calculation of OPC scattering (μg/m³),mass concentration of particles derived from Lorenz-Mie calculation of OPC scattering (μg/m³)
DateTimeUTC,F1_M11,P_M11,Q1_M11,Q2_M11,T1_M11,T2_M11,T3_M11,T4_M11,T5_M11,U1_M11,ZSPAN_M11,X2_M11,X0_M11,X1_M11
2024-02-12 16:00:00,SystemResetWarning,0827.9,4.99,000.00,018.3,017.8,000.0,026.8,020.0,15.7,0000.0,0002.39,0006.47,0001.90
2024-02-12 16:01:00,SystemResetWarning,0827.8,5.01,000.00,018.3,017.8,000.0,026.8,020.1,15.4,0000.0,0002.37,0006.78,0001.92
2024-02-12 16:02:00,SystemResetWarning,0827.8,5.00,000.00,018.3,017.8,000.0,026.8,020.0,15.7,0000.0,0002.37,0007.89,0001.92
2024-02-12 16:03:00,SystemResetWarning,0827.9,4.99,000.00,018.3,017.9,000.0,026.8,020.0,15.8,0000.0,0002.38,0008.05,0001.93
2024-02-12 16:04:00,SystemResetWarning,0827.8,5.00,000.00,018.3,017.9,000.0,026.8,020.0,15.5,0000.0,0002.40,0008.13,0001.94
2024-02-12 16:05:00,SystemResetWarning,0827.9,5.01,000.00,018.3,017.9,000.0,026.8,020.0,15.2,0000.0,0002.43,0008.53,0001.95
2024-02-12 16:06:00,SystemResetWarning,0827.8,5.01,000.00,018.3,017.8,000.0,026.8,020.0,15.0,0000.0,0002.44,0008.13,0001.95
2024-02-12 16:07:00,SystemResetWarning,0827.5,5.00,000.00,018.3,017.8,000.0,026.8,020.1,15.3,0000.0,0002.43,0008.02,0001.94
2024-02-12 16:08:00,SystemResetWarning,0827.5,4.99,000.00,018.3,017.8,000.0,026.8,020.1,15.5,0000.0,0002.42,0007.97,0001.92
2024-02-12 16:09:00,SystemResetWarning,0827.8,5.00,000.00,018.3,017.9,000.0,026.8,020.1,14.9,0000.0,0002.51,0008.10,0001.92
2024-02-12 16:10:00,SystemResetWarning,0827.8,5.02,000.00,018.3,017.9,000.0,026.8,020.1,15.2,0000.0,0002.55,0007.92,0001.92
2024-02-12 16:11:00,SystemResetWarning,0827.5,5.00,000.00,018.3,017.9,000.0,026.7,020.1,15.0,0000.0,0002.57,0007.77,0001.93
2024-02-12 16:12:00,SystemResetWarning,0827.4,4.99,000.00,018.3,017.9,000.0,026.7,020.1,15.6,0000.0,0002.61,0008.09,0001.93
2024-02-12 16:13:00,SystemResetWarning,0827.4,5.00,000.00,018.3,017.9,000.0,026.8,020.1,15.3,0000.0,0002.66,0008.42,0001.96
2024-02-12 16:14:00,SystemResetWarning,0827.4,5.00,000.00,018.3,017.9,000.0,026.8,020.1,15.0,0000.0,0002.66,0008.15,0001.97
2024-02-12 16:15:00,SystemResetWarning,0827.7,5.00,000.00,018.3,017.9,000.0,026.7,020.1,15.2,0000.0,0002.67,0008.12,0001.97
2024-02-12 16:16:00,SystemResetWarning,0827.5,5.00,000.00,018.3,017.9,000.0,026.8,020.1,15.4,0000.0,0002.71,0008.46,0001.99
2024-02-12 16:17:00,SystemResetWarning,0827.6,5.00,000.00,018.3,017.9,000.0,026.8,020.1,16.0,0000.0,0002.73,0009.17,0002.00
2024-02-12 16:18:00,SystemResetWarning,0827.7,5.01,000.00,018.3,017.9,000.0,026.8,020.1,16.5,0000.0,0002.74,0009.11,0002.02
2024-02-12 16:19:00,SystemResetWarning,0827.7,5.00,000.00,018.3,017.9,000.0,026.8,020.1,16.5,0000.0,0002.81,0009.47,0002.06
2024-02-12 16:20:00,SystemResetWarning,0827.7,5.01,000.00,018.4,018.0,000.0,026.8,020.2,16.3,0000.0,0002.78,0009.97,0002.06
2024-02-12 16:21:00,SystemResetWarning,0827.7,5.00,000.00,018.4,018.0,000.0,026.8,020.2,15.3,0000.0,0002.77,0010.57,0002.07
2024-02-12 16:22:00,SystemResetWarning,0827.7,5.00,000.00,018.4,018.0,000.0,026.8,020.2,14.3,0000.0,0002.75,0010.76,0002.08
2024-02-12 16:23:00,SystemResetWarning,0827.7,4.99,000.00,018.4,018.0,000.0,026.8,020.2,14.3,0000.0,0002.83,0011.05,0002.11
2024-02-12 16:24:00,SystemResetWarning,0827.6,5.00,000.00,018.4,018.0,000.0,026.8,020.2,14.5,0000.0,0002.87,0011.12,0002.14
2024-02-12 16:25:00,SystemResetWarning,0827.6,5.01,000.00,018.4,018.0,000.0,026.8,020.2,14.5,0000.0,0002.94,0010.43,0002.18
2024-02-12 16:26:00,SystemResetWarning,0827.7,5.00,000.00,018.4,018.0,000.0,026.8,020.2,15.2,0000.0,0003.01,0010.48,0002.22
2024-02-12 16:27:00,SystemResetWarning,0827.7,5.01,000.00,018.4,018.0,000.0,026.8,020.2,15.5,0000.0,0003.04,0010.39,0002.23
2024-02-12 16:28:00,SystemResetWarning,0827.7,5.01,000.00,018.4,018.0,000.0,026.8,020.2,15.5,0000.0,0002.95,0008.98,0002.21
2024-02-12 16:29:00,SystemResetWarning,0827.7,5.00,000.00,018.4,018.1,000.0,026.8,020.2,15.7,0000.0,0002.97,0009.05,0002.19
2024-02-12 16:30:00,SystemResetWarning,0827.7,5.00,000.00,018.4,018.1,000.0,026.8,020.2,15.7,0000.0,0002.96,0009.00,0002.16
2024-02-12 16:31:00,SystemResetWarning,0827.7,5.00,000.00,018.5,018.1,000.0,026.8,020.2,15.8,0000.0,0002.93,0008.65,0002.15
2024-02-12 16:32:00,SystemResetWarning,0827.7,5.00,000.00,018.5,018.1,000.0,026.8,020.3,15.8,0000.0,0002.98,0008.14,0002.15
2024-02-12 16:33:00,SystemResetWarning,0827.7,5.00,000.00,018.5,018.1,000.0,026.8,020.3,15.9,0000.0,0003.09,0008.87,0002.17
2024-02-12 16:34:00,SystemResetWarning,0827.7,5.00,000.00,018.5,018.1,000.0,026.9,020.3,15.5,0000.0,0003.12,0008.90,0002.17
2024-02-12 16:35:00,SystemResetWarning,0827.6,5.00,000.00,018.5,018.2,000.0,026.9,020.3,15.2,0000.0,0003.12,0008.72,0002.15
2024-02-12 16:36:00,SystemResetWarning,0827.5,5.00,000.00,018.5,018.2,000.0,026.9,020.3,15.0,0000.0,0003.11,0008.62,0002.13
2024-02-12 16:37:00,SystemResetWarning,0827.7,5.00,000.00,018.5,018.2,000.0,026.9,020.3,14.7,0000.0,0003.06,0008.66,0002.07
2024-02-12 16:38:00,SystemResetWarning,0827.4,5.00,000.00,018.5,018.2,000.0,026.9,020.3,15.0,0000.0,0003.06,0008.90,0002.06
2024-02-12 16:39:00,SystemResetWarning,0827.4,5.00,000.00,018.5,018.2,000.0,026.9,020.3,16.1,0000.0,0003.10,0008.99,0002.09
2024-02-12 16:40:00,SystemResetWarning,0827.4,5.00,000.00,018.6,018.2,000.0,026.9,020.3,16.0,0000.0,0003.12,0008.98,0002.11
2024-02-12 16:41:00,SystemResetWarning,0827.4,5.01,000.00,018.6,018.2,000.0,026.9,020.3,16.4,0000.0,0003.13,0009.00,0002.13
2024-02-12 16:42:00,SystemResetWarning,0827.4,5.00,000.00,018.6,018.2,000.0,026.9,020.3,16.3,0000.0,0003.16,0009.19,0002.13
2024-02-12 16:43:00,SystemResetWarning,0827.4,5.00,000.00,018.6,018.2,000.0,026.9,020.4,16.2,0000.0,0003.14,0008.89,0002.11
2024-02-12 16:44:00,SystemResetWarning,0827.4,5.00,000.00,018.6,018.2,000.0,026.9,020.4,16.3,0000.0,0003.07,0008.04,0002.08
2024-02-12 16:45:00,SystemResetWarning,0827.4,5.00,000.00,018.6,018.3,000.0,026.9,020.4,16.3,0000.0,0003.00,0007.54,0002.08
2024-02-12 16:46:00,SystemResetWarning,0827.4,4.99,000.00,018.6,018.3,000.0,026.9,020.4,16.2,0000.0,0002.96,0006.42,0002.09
2024-02-12 16:47:00,SystemResetWarning,0827.4,5.00,000.00,018.6,018.3,000.0,026.9,020.4,16.0,0000.0,0003.00,0006.18,0002.11
2024-02-12 16:48:00,SystemResetWarning,0827.4,5.00,000.00,018.7,018.3,000.0,027.0,020.4,15.6,0000.0,0003.02,0006.07,0002.14
2024-02-12 16:49:00,SystemResetWarning,0827.4,5.00,000.00,018.7,018.3,000.0,027.0,020.4,15.7,0000.0,0002.98,0005.44,0002.16
2024-02-12 16:50:00,SystemResetWarning,0827.4,5.00,000.00,018.7,018.3,000.0,027.0,020.4,16.3,0000.0,0002.99,0005.37,0002.19
2024-02-12 16:51:00,SystemResetWarning,0827.4,5.00,000.00,018.7,018.3,000.0,027.0,020.4,15.7,0000.0,0003.04,0005.44,0002.22
2024-02-12 16:52:00,SystemResetWarning,0827.3,4.99,000.00,018.7,018.3,000.0,027.0,020.4,15.8,0000.0,0003.03,0006.11,0002.25
2024-02-12 16:53:00,SystemResetWarning,0827.4,5.00,000.00,018.7,018.4,000.0,027.0,020.4,15.4,0000.0,0003.04,0007.72,0002.29
2024-02-12 16:54:00,SystemResetWarning,0827.3,5.00,000.00,018.7,018.4,000.0,027.0,020.5,15.4,0000.0,0003.06,0008.08,0002.32
2024-02-12 16:55:00,SystemResetWarning,0827.4,5.00,000.00,018.7,018.4,000.0,027.0,020.5,16.1,0000.0,0003.08,0008.04,0002.35
2024-02-12 16:56:00,SystemResetWarning,0827.4,5.00,000.00,018.7,018.4,000.0,027.0,020.5,15.6,0000.0,0003.10,0007.99,0002.38
2024-02-12 16:57:00,SystemResetWarning,0827.4,5.00,000.00,018.7,018.4,000.0,027.0,020.5,15.4,0000.0,0003.06,0007.94,0002.39
2024-02-12 16:58:00,SystemResetWarning,0827.7,5.00,000.00,018.8,018.4,000.0,027.1,020.5,15.4,0000.0,0002.99,0007.82,0002.38
2024-02-12 16:59:00,SystemResetWarning,0827.7,5.00,000.00,018.8,018.4,000.0,027.1,020.5,15.5,0000.0,0003.01,0008.54,0002.37
